Volver al catálogo

FENGYUN 1C DEB

ActivoPO
NORAD 38115·DEBRIS·🇨🇳 China

Lanzado May 10, 1999 desde Taiyuan Satellite Launch Center

Loading…

Próximos Pases (próximas 24 horas)

TLE

ActualizadoSource: Space-Track

Época: Sep 12, 2026, 03:47 UTC

1 38115U 99025EPL 26255.15826422  .00005235  00000-0  25992-2 0  9997
2 38115  97.6988  36.0306 0253713 169.9089 190.7314 14.02084822278483

Sigue FENGYUN 1C DEB en tiempo real con AllMySat

Download on the App Store